This is the latest recevied weather packets stored in our database for station/object N5DGC. If no packets are shown the sender has not sent any weather packets the latest 10 day(s).
| Time | Temp. | Humidity | Pressure | Rain* | Wind** | Luminosity | Snow |
|---|---|---|---|---|---|---|---|
| 1777999564 | 14.44° C | 44% | 1231.4 hPa | 0 mm | - | 250 W/m² | - |
| 1777999262 | 13.89° C | 45% | 1231.2 hPa | 0 mm | - | 429 W/m² | - |
| 1777998960 | 13.89° C | 45% | 1231.3 hPa | 0 mm | - | 277 W/m² | - |
| 1777998657 | 13.33° C | 45% | 1231.4 hPa | 0 mm | - | 250 W/m² | - |
| 1777998355 | 13.33° C | 45% | 1231.5 hPa | 0 mm | - | 233 W/m² | - |
| 1777998053 | 13.33° C | 47% | 1231.4 hPa | 0 mm | - | 332 W/m² | - |
| 1777997749 | 12.78° C | 48% | 1231.5 hPa | 0 mm | - | 445 W/m² | - |
| 1777997447 | 12.78° C | 48% | 1231.7 hPa | 0 mm | - | 305 W/m² | - |
| 1777997144 | 12.22° C | 51% | 1231.7 hPa | 0 mm | - | 218 W/m² | - |
| 1777996842 | 12.22° C | 53% | 1231.8 hPa | 0 mm | - | 206 W/m² | - |
| 1777996537 | 11.67° C | 54% | 1231.8 hPa | 0 mm | - | 207 W/m² | - |
| 1777996234 | 11.67° C | 56% | 1231.9 hPa | 0 mm | - | 173 W/m² | - |
| 1777995930 | 11.67° C | 56% | 1231.9 hPa | 0 mm | - | 154 W/m² | - |
| 1777995626 | 11.67° C | 55% | 1232.1 hPa | 0 mm | - | 180 W/m² | - |
| 1777995324 | 11.67° C | 53% | 1232 hPa | 0 mm | - | 170 W/m² | - |
| 1777995021 | 11.67° C | 53% | 1232.1 hPa | 0 mm | - | 160 W/m² | - |
| 1777994718 | 11.67° C | 52% | 1232.2 hPa | 0 mm | - | 137 W/m² | - |
| 1777994413 | 12.22° C | 56% | 1232.4 hPa | 0 mm | - | 158 W/m² | - |
| 1777994109 | 12.22° C | 56% | 1232.2 hPa | 0 mm | - | 180 W/m² | - |
| 1777993806 | 11.67° C | 59% | 1232.2 hPa | 0 mm | - | 234 W/m² | - |
| 1777993503 | 11.67° C | 60% | 1232.2 hPa | 0 mm | - | 254 W/m² | - |
| 1777993203 | 11.67° C | 60% | 1232.2 hPa | 0 mm | - | 194 W/m² | - |
| 1777992900 | 11.67° C | 59% | 1232.6 hPa | 0 mm | - | 148 W/m² | - |
| 1777992598 | 11.67° C | 59% | 1232.4 hPa | 0 mm | - | 131 W/m² | - |
| 1777992296 | 11.67° C | 60% | 1232.4 hPa | 0 mm | - | 122 W/m² | - |
* Rain latest hour (hover to see other rain measurements)
** Current wind speed in m/s (hover to see current wind gust speed)